Tracking 19245 objects as of 14-Aug-2018
HD Live streaming from Space Station
objects crossing your sky now

SATCOM 1

Track SATCOM 1 now!
SATCOM 1 is classified as:


NORAD ID: 8476
Int'l Code: 1975-117A
Perigee: 35,911.2 km
Apogee: 36,055.1 km
Inclination: 13.5 °
Period: 1,445.8 minutes
Semi major axis: 42354 km
RCS: 2.5118 m2 (large)
Launch date: December 13, 1975
Source: United States (US)
Launch site: AIR FORCE EASTERN TEST RANGE (AFETR)
aabbcc
Your satellite tracking list
Your tracking list is empty




NASA's NSSDC Master Catalog

Two Line Element Set (TLE):
1  8476U 75117A   18224.44912170 +.00000072 +00000-0 +00000-0 0  9990
2  8476 013.5323 331.3583 0016990 203.1802 173.3338 00.99600031101098
Source of the keplerian elements: AFSPC